sat.trackr.live / text

‹ back to catalog

KUIPER-00155

NORAD 65774 · 2025-217N

PAYLOAD ACTIVE UNKNOWN

§ Identity

Operator
Country
US
Launch date
2025-09-25
Launch site
AFETR
Launch vehicle
Mass (kg)
RCS (m²)

External: N2YO · Heavens-Above · Gunter

§ Orbital elements

Epoch: 2026-05-24T21:43:53.942016Z

Period
97.30 min
Inclination
51.9043°
Eccentricity
0.0001023
Mean motion
14.79934854 rev/d
Perigee alt
628.8 km
Apogee alt
630.2 km
Semi-major
7,007.7 km
B*
-1.6650e-4
RAAN
21.1030°
Arg perigee
127.6143°
Mean anomaly
232.4912°
Rev number
3,679

§ Raw data

KUIPER-001551 65774U 25217N   26144.90548544 -.00001490  00000+0 -16650-3 0  99982 65774  51.9043  21.1030 0001023 127.6143 232.4912 14.79934854 36792

JSON: /api/v1/satellites/65774 · /tle

For live sub-satellite position, see the globe view (requires WebGL).

§ Visibility from observer

Set your observer location to see the next 7 days of passes ≥ 10°. The values pass through the URL so the page stays shareable.

No JS? Fill the form by hand. The geolocation button needs JavaScript.